Location: Willingham
(52.3167°N, 0.0667°E)
Time: 05:50:29
(UTC+00:00)

Spot 1 - Pass Details

Date: 19 May 2025
Orbit: 568 x 753 km, 98.7° (Epoch: 18 June)

Event Time Altitude Azimuth Distance (km) Brightness Sun altitude
Rises 23:17:56 0° 18° (NNE) 2,855 8.6 -17.2°
Reaches altitude 10° 23:20:06 10° 23° (NNE) 1,971 7.5 -17.3°
Maximum altitude 23:24:18 55° 102° (ESE) 762 4.3 -17.4°
Enters shadow 23:25:57 34° 162° (SSE) 1,051 4.7 -17.4°
